CAPE
13 8 3 0 0 23 30 8 6 7 15 31 25 16 32 3 6 0 0 0 0 22 23 8 0 1 79 69 150 172 186 50 74 66 2 33 23 10 39 183 237 74 48 51 561
13 3 10 11 0 0 16 27 11 11 3 43 30 14 38 13 0 0 0 1 13 13 6 5 32 61 82 78 137 149 59 4 28 10 2 16 14 43 374 478 477 497 379 235 167
9 2 4 11 5 0 9 32 23 12 3 39 39 13 30 0 0 0 0 0 3 18 21 56 106 93 36 41 78 80 63 0 70 2 183 75 17 165 299 447 437 411 271 133 104
13 10 3 3 26 0 14 24 23 13 9 33 32 11 2 0 0 0 0 8 26 0 9 47 52 61 38 25 30 81 10 14 38 0 164 209 80 185 348 174 237 654 378 164 108
97 4 5 3 7 8 0 19 20 9 6 22 28 21 0 0 0 0 0 2 18 23 0 2 31 49 24 101 71 59 0 26 11 20 0 35 134 220 207 380 778 814 362 413 173
138 5 2 16 8 3 4 14 12 16 36 5 23 13 0 0 0 0 0 0 5 13 4 0 25 72 37 28 8 33 3 10 25 4 6 111 126 177 74 623 1295 862 427 480 433
5 27 14 19 14 10 0 16 10 24 31 0 22 4 0 0 0 0 0 0 12 32 52 0 19 52 46 93 13 3 54 54 17 8 169 27 84 157 71 423 977 860 498 379 407
81 9 13 23 5 11 5 15 1 27 25 6 16 9 0 0 0 0 0 0 29 1 0 14 21 3 1 16 79 39 58 55 8 0 0 92 50 42 90 282 408 479 519 494 480
19 43 23 9 11 8 5 10 7 24 30 29 0 0 0 0 0 0 0 0 34 0 6 51 39 2 0 17 36 51 3 34 1 0 0 45 58 63 97 67 82 144 137 280 287
5 16 35 7 7 3 5 3 8 11 5 0 0 0 0 0 0 0 0 0 2 0 0 13 0 0 7 18 0 6 24 5 0 36 0 60 49 95 99 47 18 26 75 150 162
3 15 11 0 4 26 4 0 0 0 0 0 0 0 0 0 0 0 0 0 0 0 0 0 0 5 1 3 7 30 18 0 0 0 0 0 28 100 139 39 27 9 44 112 135
20 4 9 4 3 5 8 0 0 0 0 0 0 0 0 0 0 0 0 0 0 0 0 0 0 0 44 33 35 59 49 42 8 0 0 0 24 31 44 53 8 32 8 0 0
1 28 6 11 3 3 1 0 0 0 0 0 0 0 0 0 0 0 0 0 0 0 0 0 0 0 21 75 44 37 7 4 0 0 0 0 0 1 0 14 54 18 24 4 0
0 14 6 1 0 0 0 0 0 0 0 0 0 0 0 0 0 0 0 0 0 0 0 0 2 0 10 27 41 39 16 58 45 0 0 0 0 0 0 0 1 6 34 24 14
4 26 23 7 0 1 0 0 0 0 0 0 0 0 0 0 0 0 0 0 0 0 0 22 21 3 32 16 51 35 17 43 8 0 0 0 0 0 0 0 0 1 2 19 18
39 21 31 3 8 0 0 0 0 0 0 0 0 0 1 0 0 0 0 0 0 0 64 3 4 1 23 17 40 27 3 20 0 3 0 0 0 0 0 0 0 0 0 0 0
42 19 17 3 0 0 0 0 0 0 0 0 0 0 0 0 1 0 0 0 0 4 43 1 6 1 26 10 17 53 21 0 0 0 0 0 0 0 0 0 0 0 0 0 0
34 45 0 1 0 0 0 0 0 0 0 0 0 0 0 0 2 10 0 0 0 0 1 5 0 0 2 0 1 0 14 3 0 0 0 0 0 0 0 0 0 0 0 0 0
98 6 16 3 0 0 0 0 0 0 0 0 0 0 0 0 1 0 0 0 5 0 0 0 0 56 23 11 7 0 0 0 15 4 0 0 0 0 0 0 0 0 0 0 0
38 13 12 1 0 0 0 0 0 0 0 0 0 0 0 0 0 0 0 0 0 1 0 0 10 8 23 16 0 0 0 0 1 0 0 0 0 0 0 0 0 0 0 0 0
0 0 0 25 0 0 0 0 0 0 0 0 0 0 0 0 0 0 0 0 3 0 0 0 0 1 0 1 0 0 0 0 0 0 0 0 0 0 0 0 0 0 0 0 0
0 0 0 0 0 0 0 0 0 0 0 0 0 0 0 0 0 0 0 0 0 0 0 0 0 0 0 0 0 0 0 0 0 0 0 0 0 0 0 0 0 0 0 0 0
0 0 9 0 0 0 0 0 0 0 0 0 0 4 0 0 0 1 0 0 3 0 0 0 0 0 0 0 0 0 0 0 0 0 0 0 0 0 0 0 0 0 0 0 0
0 0 0 0 0 0 0 0 0 0 0 0 3 10 0 0 4 0 0 0 3 0 0 0 0 0 0 0 0 0 0 0 0 0 0 0 0 0 0 0 0 0 0 0 0
0 0 0 0 0 0 0 0 0 0 0 0 0 0 0 0 0 0 0 0 0 0 0 0 0 0 0 0 0 0 0 0 0 0 0 0 0 0 0 0 0 0 0 0 0
0 0 0 0 0 0 0 0 0 0 0 0 0 0 24 0 0 0 0 0 0 0 0 0 0 0 0 0 0 0 0 0 0 0 0 0 0 0 0 0 0 0 0 0 0
0 0 0 0 1 0 0 0 0 0 0 0 0 0 15 5 2 0 0 0 0 0 0 0 0 0 0 0 0 0 0 0 0 0 0 0 0 0 0 0 0 0 0 0 0
CIN
-1 -1 -2 0 0 0 0 0 0 0 0 0 0 0 0 0 0 0 0 0 0 -1 0 -9 0 -2 -2 -9 -7 -5 0 -2 -6 -16 -198 -16 -13 -123 -49 -103 -64 -132 -99 -81 -6
-2 -6 -3 0 0 0 0 0 0 0 -1 0 0 0 0 0 0 0 0 0 0 0 -18 -11 -25 -21 -2 -10 -6 0 -2 -2 -44 -68 -38 -6 -19 -72 -78 -128 -117 -53 -109 -91 -30
-10 -13 -3 -1 -2 0 0 0 0 0 0 0 0 0 0 0 0 0 0 0 0 0 -20 -3 0 0 -9 -6 -15 -2 -1 -1 -19 -87 -7 -15 -6 -17 -70 -70 -97 -69 -92 -85 -109
0 -2 -21 0 -1 0 0 0 0 0 0 0 0 0 0 0 0 0 0 0 -1 0 -19 -2 -1 -4 -3 -21 -21 -7 -9 -14 -16 -110 -52 -10 -16 -6 -66 -57 -37 -104 -113 -240 -168
-63 -3 -1 0 0 0 0 0 0 0 0 0 0 0 0 0 0 0 0 -4 -13 -4 0 0 0 0 -6 -9 -13 -2 0 -9 -31 -27 0 -6 -29 0 -64 -96 -104 -96 -115 -150 -170
-12 -1 -8 0 -2 0 0 0 0 0 0 -1 0 0 0 0 0 0 0 0 0 0 -1 0 -1 -14 -13 -6 -5 -7 -12 -17 -18 -41 -16 0 -28 -43 -46 -72 -24 -69 -116 -145 -131
0 -23 -4 -2 0 0 0 0 0 0 0 0 0 0 0 0 0 0 0 0 0 -1 0 0 -14 -5 -11 -2 -15 -4 -14 -3 -9 -19 -1 -1 -31 -23 -59 -86 -45 -66 -116 -80 -83
-56 -1 -2 -2 0 0 -3 0 0 0 0 0 0 0 0 0 0 0 0 0 -13 0 0 -5 -6 -1 -1 0 -32 -26 -4 0 -2 0 0 -5 -43 -36 -46 -70 -40 -62 -78 -107 -94
-13 -86 -3 0 0 -2 -2 0 0 0 0 0 0 0 0 0 0 0 0 0 -11 -1 -3 -13 -7 0 0 0 -5 -17 0 -1 -1 0 0 -3 -8 -41 -38 -53 -83 -45 -48 -78 -76
-2 -19 -32 -3 -2 0 0 0 -1 0 0 0 0 0 0 0 0 0 0 0 0 0 0 -3 0 0 -3 -3 0 0 -1 0 0 0 0 -6 -1 -8 -22 -23 -21 -57 -56 -37 -35
0 0 0 0 -1 0 -1 0 0 0 0 0 0 0 0 0 0 0 0 0 0 0 0 0 0 -3 -4 -4 -8 -24 -45 0 0 0 0 0 -2 0 -6 -13 -15 -1 -37 -45 -44
0 0 -3 0 0 0 0 0 0 0 0 0 0 0 0 0 0 0 0 0 0 0 0 0 0 0 -4 -20 -7 -14 -20 -12 -4 0 0 0 -73 0 -1 -3 -3 -1 -2 -1 0
0 0 -7 -2 0 -1 0 -9 0 0 0 0 0 0 0 0 0 0 0 0 0 0 0 0 0 0 -12 -10 -15 -14 -51 -67 0 0 0 0 0 -1 0 -7 -15 -2 -1 -9 -1
0 0 -5 -2 0 0 0 0 0 0 0 0 0 0 0 0 0 0 0 0 0 0 0 0 -2 -1 -6 -33 -8 -35 -58 -20 -32 -3 0 0 0 0 0 0 -2 -3 -3 -9 -10
0 0 0 -3 0 0 0 0 0 0 0 0 0 0 0 0 0 0 0 0 0 0 0 -10 -20 -2 -2 -29 -15 -14 -44 -19 -20 0 0 0 0 0 0 0 0 -3 -2 -18 -16
0 0 0 0 0 0 0 0 0 0 0 0 0 0 0 0 0 0 0 0 0 0 -1 -6 -1 -10 -5 -25 -26 -33 -26 -6 0 -3 0 0 0 0 0 0 0 0 0 0 0
0 0 0 0 0 0 0 0 0 0 0 0 0 0 0 0 0 0 0 0 0 -4 -7 0 -1 -3 -35 -30 -6 -21 -14 0 0 0 0 0 0 0 0 0 0 0 0 0 0
-1 0 0 0 0 0 0 0 0 0 0 0 0 0 0 0 -6 -9 0 0 0 0 -27 -4 -2 0 -50 -13 -6 -1 -3 -5 0 0 0 0 0 0 0 0 0 0 0 0 0
0 -2 0 0 0 0 0 0 0 0 0 0 0 0 0 0 -1 0 0 0 -3 0 -1 -4 0 -15 -9 -56 -45 -1 -1 0 -3 -4 0 0 0 0 0 0 0 0 0 0 0
-3 -1 0 0 0 0 0 0 0 0 0 0 0 0 0 0 0 0 0 0 -7 -3 0 0 -16 -7 -2 -35 -16 0 0 0 -1 0 0 0 0 -1 0 0 -7 0 0 0 0
0 0 0 0 0 0 0 0 0 0 0 0 0 0 0 0 0 0 0 0 -3 0 0 0 0 -1 -1 -10 0 0 0 0 0 0 0 0 0 0 0 0 0 0 0 0 0
0 0 0 0 0 0 0 0 0 0 0 0 0 0 0 0 0 0 0 0 0 0 0 0 0 0 0 0 0 0 0 0 0 0 0 0 0 0 0 0 0 0 0 0 0
0 0 0 0 0 0 0 0 0 0 0 0 0 -1 0 0 0 0 0 0 -6 0 0 0 0 0 0 0 0 0 0 0 0 0 0 0 0 0 0 0 0 0 0 0 0
0 0 0 0 0 0 0 0 0 0 0 0 -5 -4 0 0 -8 0 0 0 -2 0 0 0 0 0 0 0 0 0 0 0 0 0 0 0 0 0 0 0 0 0 0 0 0
0 0 0 0 0 0 0 0 0 0 0 0 -1 0 0 0 -1 0 0 0 0 0 0 0 0 0 0 0 0 0 0 0 0 0 0 0 0 0 0 0 0 0 0 0 0
0 0 0 0 0 0 0 0 0 0 0 0 0 0 -1 0 0 0 0 0 0 0 0 0 0 0 0 0 0 0 0 0 0 0 0 0 0 0 0 0 0 0 0 0 0
0 0 0 0 -1 0 0 0 0 0 0 0 0 0 -1 0 -2 -1 0 0 0 0 0 0 0 0 0 0 0 0 0 0 0 0 0 0 0 0 0 0 0 0 0 0 0
Wind_Speed
nan nan nan nan nan nan nan nan nan nan nan nan nan nan nan nan nan nan nan nan nan nan nan nan nan nan nan nan 61 63 56 nan nan nan nan nan nan nan nan 61 57 nan nan nan 61
nan nan nan nan nan nan nan nan nan nan nan nan nan nan nan nan nan nan nan nan nan nan nan nan nan nan nan nan 62 63 nan nan nan nan nan nan nan nan 56 58 57 59 49 53 38
nan nan nan nan nan nan nan nan nan nan nan nan nan nan nan nan nan nan nan nan nan nan nan nan 24 nan nan nan nan nan nan nan nan nan 59 nan nan 47 54 52 56 49 52 44 41
nan nan nan nan nan nan nan nan nan nan nan nan nan nan nan nan nan nan nan nan nan nan nan nan nan nan nan nan nan nan nan nan nan nan 61 54 nan 49 48 52 60 46 49 58 57
nan nan nan nan nan nan nan nan nan nan nan nan nan nan nan nan nan nan nan nan nan nan nan nan nan nan nan 25 nan nan nan nan nan nan nan nan 53 40 59 54 54 51 54 46 46
27 nan nan nan nan nan nan nan nan nan nan nan nan nan nan nan nan nan nan nan nan nan nan nan nan nan nan nan nan nan nan nan nan nan nan 36 55 53 nan 57 49 46 45 45 40
nan nan nan nan nan nan nan nan nan nan nan nan nan nan nan nan nan nan nan nan nan nan nan nan nan nan nan nan nan nan nan nan nan nan 27 nan nan 63 nan 58 51 46 44 47 53
nan nan nan nan nan nan nan nan nan nan nan nan nan nan nan nan nan nan nan nan nan nan nan nan nan nan nan nan nan nan nan nan nan nan nan nan nan nan nan 63 63 54 45 40 47
nan nan nan nan nan nan nan nan nan nan nan nan nan nan nan nan nan nan nan nan nan nan nan nan nan nan nan nan nan nan nan nan nan nan nan nan nan nan nan nan nan 60 57 43 43
nan nan nan nan nan nan nan nan nan nan nan nan nan nan nan nan nan nan nan nan nan nan nan nan nan nan nan nan nan nan nan nan nan nan nan nan nan nan nan nan nan nan nan 51 37
nan nan nan nan nan nan nan nan nan nan nan nan nan nan nan nan nan nan nan nan nan nan nan nan nan nan nan nan nan nan nan nan nan nan nan nan nan 60 63 nan nan nan nan 52 48
nan nan nan nan nan nan nan nan nan nan nan nan nan nan nan nan nan nan nan nan nan nan nan nan nan nan nan nan nan nan nan nan nan nan nan nan nan nan nan nan nan nan nan nan nan
nan nan nan nan nan nan nan nan nan nan nan nan nan nan nan nan nan nan nan nan nan nan nan nan nan nan nan nan nan nan nan nan nan nan nan nan nan nan nan nan nan nan nan nan nan
nan nan nan nan nan nan nan nan nan nan nan nan nan nan nan nan nan nan nan nan nan nan nan nan nan nan nan nan nan nan nan nan nan nan nan nan nan nan nan nan nan nan nan nan nan
nan nan nan nan nan nan nan nan nan nan nan nan nan nan nan nan nan nan nan nan nan nan nan nan nan nan nan nan nan nan nan nan nan nan nan nan nan nan nan nan nan nan nan nan nan
nan nan nan nan nan nan nan nan nan nan nan nan nan nan nan nan nan nan nan nan nan nan nan nan nan nan nan nan nan nan nan nan nan nan nan nan nan nan nan nan nan nan nan nan nan
nan nan nan nan nan nan nan nan nan nan nan nan nan nan nan nan nan nan nan nan nan nan nan nan nan nan nan nan nan nan nan nan nan nan nan nan nan nan nan nan nan nan nan nan nan
nan nan nan nan nan nan nan nan nan nan nan nan nan nan nan nan nan nan nan nan nan nan nan nan nan nan nan nan nan nan nan nan nan nan nan nan nan nan nan nan nan nan nan nan nan
nan nan nan nan nan nan nan nan nan nan nan nan nan nan nan nan nan nan nan nan nan nan nan nan nan nan nan nan nan nan nan nan nan nan nan nan nan nan nan nan nan nan nan nan nan
nan nan nan nan nan nan nan nan nan nan nan nan nan nan nan nan nan nan nan nan nan nan nan nan nan nan nan nan nan nan nan nan nan nan nan nan nan nan nan nan nan nan nan nan nan
nan nan nan nan nan nan nan nan nan nan nan nan nan nan nan nan nan nan nan nan nan nan nan nan nan nan nan nan nan nan nan nan nan nan nan nan nan nan nan nan nan nan nan nan nan
nan nan nan nan nan nan nan nan nan nan nan nan nan nan nan nan nan nan nan nan nan nan nan nan nan nan nan nan nan nan nan nan nan nan nan nan nan nan nan nan nan nan nan nan nan
nan nan nan nan nan nan nan nan nan nan nan nan nan nan nan nan nan nan nan nan nan nan nan nan nan nan nan nan nan nan nan nan nan nan nan nan nan nan nan nan nan nan nan nan nan
nan nan nan nan nan nan nan nan nan nan nan nan nan nan nan nan nan nan nan nan nan nan nan nan nan nan nan nan nan nan nan nan nan nan nan nan nan nan nan nan nan nan nan nan nan
nan nan nan nan nan nan nan nan nan nan nan nan nan nan nan nan nan nan nan nan nan nan nan nan nan nan nan nan nan nan nan nan nan nan nan nan nan nan nan nan nan nan nan nan nan
nan nan nan nan nan nan nan nan nan nan nan nan nan nan nan nan nan nan nan nan nan nan nan nan nan nan nan nan nan nan nan nan nan nan nan nan nan nan nan nan nan nan nan nan nan
nan nan nan nan nan nan nan nan nan nan nan nan nan nan nan nan nan nan nan nan nan nan nan nan nan nan nan nan nan nan nan nan nan nan nan nan nan nan nan nan nan nan nan nan nan
Wind_Direction
nan nan nan nan nan nan nan nan nan nan nan nan nan nan nan nan nan nan nan nan nan nan nan nan nan nan nan nan 233 230 227 nan nan nan nan nan nan nan nan 229 223 nan nan nan 213
nan nan nan nan nan nan nan nan nan nan nan nan nan nan nan nan nan nan nan nan nan nan nan nan nan nan nan nan 227 228 nan nan nan nan nan nan nan nan 229 226 225 218 225 241 203
nan nan nan nan nan nan nan nan nan nan nan nan nan nan nan nan nan nan nan nan nan nan nan nan 265 nan nan nan nan nan nan nan nan nan 199 nan nan 205 228 224 222 237 242 231 231
nan nan nan nan nan nan nan nan nan nan nan nan nan nan nan nan nan nan nan nan nan nan nan nan nan nan nan nan nan nan nan nan nan nan 199 196 nan 208 219 220 217 233 245 248 254
nan nan nan nan nan nan nan nan nan nan nan nan nan nan nan nan nan nan nan nan nan nan nan nan nan nan nan 203 nan nan nan nan nan nan nan nan 206 206 214 213 221 235 241 248 258
295 nan nan nan nan nan nan nan nan nan nan nan nan nan nan nan nan nan nan nan nan nan nan nan nan nan nan nan nan nan nan nan nan nan nan 207 208 206 nan 210 229 240 246 246 252
nan nan nan nan nan nan nan nan nan nan nan nan nan nan nan nan nan nan nan nan nan nan nan nan nan nan nan nan nan nan nan nan nan nan 197 nan nan 208 nan 208 223 231 240 247 244
nan nan nan nan nan nan nan nan nan nan nan nan nan nan nan nan nan nan nan nan nan nan nan nan nan nan nan nan nan nan nan nan nan nan nan nan nan nan nan 211 216 215 228 247 249
nan nan nan nan nan nan nan nan nan nan nan nan nan nan nan nan nan nan nan nan nan nan nan nan nan nan nan nan nan nan nan nan nan nan nan nan nan nan nan nan nan 210 216 226 239
nan nan nan nan nan nan nan nan nan nan nan nan nan nan nan nan nan nan nan nan nan nan nan nan nan nan nan nan nan nan nan nan nan nan nan nan nan nan nan nan nan nan nan 216 216
nan nan nan nan nan nan nan nan nan nan nan nan nan nan nan nan nan nan nan nan nan nan nan nan nan nan nan nan nan nan nan nan nan nan nan nan nan 197 202 nan nan nan nan 219 231
nan nan nan nan nan nan nan nan nan nan nan nan nan nan nan nan nan nan nan nan nan nan nan nan nan nan nan nan nan nan nan nan nan nan nan nan nan nan nan nan nan nan nan nan nan
nan nan nan nan nan nan nan nan nan nan nan nan nan nan nan nan nan nan nan nan nan nan nan nan nan nan nan nan nan nan nan nan nan nan nan nan nan nan nan nan nan nan nan nan nan
nan nan nan nan nan nan nan nan nan nan nan nan nan nan nan nan nan nan nan nan nan nan nan nan nan nan nan nan nan nan nan nan nan nan nan nan nan nan nan nan nan nan nan nan nan
nan nan nan nan nan nan nan nan nan nan nan nan nan nan nan nan nan nan nan nan nan nan nan nan nan nan nan nan nan nan nan nan nan nan nan nan nan nan nan nan nan nan nan nan nan
nan nan nan nan nan nan nan nan nan nan nan nan nan nan nan nan nan nan nan nan nan nan nan nan nan nan nan nan nan nan nan nan nan nan nan nan nan nan nan nan nan nan nan nan nan
nan nan nan nan nan nan nan nan nan nan nan nan nan nan nan nan nan nan nan nan nan nan nan nan nan nan nan nan nan nan nan nan nan nan nan nan nan nan nan nan nan nan nan nan nan
nan nan nan nan nan nan nan nan nan nan nan nan nan nan nan nan nan nan nan nan nan nan nan nan nan nan nan nan nan nan nan nan nan nan nan nan nan nan nan nan nan nan nan nan nan
nan nan nan nan nan nan nan nan nan nan nan nan nan nan nan nan nan nan nan nan nan nan nan nan nan nan nan nan nan nan nan nan nan nan nan nan nan nan nan nan nan nan nan nan nan
nan nan nan nan nan nan nan nan nan nan nan nan nan nan nan nan nan nan nan nan nan nan nan nan nan nan nan nan nan nan nan nan nan nan nan nan nan nan nan nan nan nan nan nan nan
nan nan nan nan nan nan nan nan nan nan nan nan nan nan nan nan nan nan nan nan nan nan nan nan nan nan nan nan nan nan nan nan nan nan nan nan nan nan nan nan nan nan nan nan nan
nan nan nan nan nan nan nan nan nan nan nan nan nan nan nan nan nan nan nan nan nan nan nan nan nan nan nan nan nan nan nan nan nan nan nan nan nan nan nan nan nan nan nan nan nan
nan nan nan nan nan nan nan nan nan nan nan nan nan nan nan nan nan nan nan nan nan nan nan nan nan nan nan nan nan nan nan nan nan nan nan nan nan nan nan nan nan nan nan nan nan
nan nan nan nan nan nan nan nan nan nan nan nan nan nan nan nan nan nan nan nan nan nan nan nan nan nan nan nan nan nan nan nan nan nan nan nan nan nan nan nan nan nan nan nan nan
nan nan nan nan nan nan nan nan nan nan nan nan nan nan nan nan nan nan nan nan nan nan nan nan nan nan nan nan nan nan nan nan nan nan nan nan nan nan nan nan nan nan nan nan nan
nan nan nan nan nan nan nan nan nan nan nan nan nan nan nan nan nan nan nan nan nan nan nan nan nan nan nan nan nan nan nan nan nan nan nan nan nan nan nan nan nan nan nan nan nan
nan nan nan nan nan nan nan nan nan nan nan nan nan nan nan nan nan nan nan nan nan nan nan nan nan nan nan nan nan nan nan nan nan nan nan nan nan nan nan nan nan nan nan nan nan